Change the Weather History Date:

Thursday, August 23, 2012

  Actual Average Record
Temperature  
Mean Temperature 58 °F -  
Max Temperature 69 °F 69 °F 80 °F (1996)
Min Temperature 48 °F 48 °F 42 °F (2003)
Degree Days  
Heating Degree Days 7    
Growing Degree Days 8 (Base 50)    
Moisture  
Dew Point 47 °F    
Average Humidity 71    
Maximum Humidity 97    
Minimum Humidity 42    
Precipitation  
Precipitation 0.00 in - - ()
Sea Level Pressure  
Sea Level Pressure 30.07 in    
Wind  
Wind Speed 4 mph (SW)    
Max Wind Speed 14 mph    
Max Gust Speed 28 mph    
Visibility 10 miles    
Events      
Averages and records for this station are not official NWS values.
T = Trace of Precipitation, MM = Missing Value Source: NWS Daily Summary

Daily Weather History Graph

Daily Weather History Graph

Search for Another Location

Airport or City:

Trip Planner

Search our weather history database for the weather conditions in past years. The results will help you decide how hot, cold, wet, or windy it might be!

Date:

Astronomy

Aug. 23, 2012 Rise Set
Actual Time 6:17 AM PDT 8:10 PM PDT
Civil Twilight 5:44 AM PDT 8:43 PM PDT
Nautical Twilight 5:02 AM PDT 9:24 PM PDT
Astronomical Twilight 4:16 AM PDT 10:10 PM PDT
Moon 1:51 PM PDT (8/23) 11:02 PM PDT (8/23)
Length of Visible Light 14h 59m
Length of Day
13h 52m
Waxing Crescent, 41% of the Moon is Illuminated
Aug 23
Waxing Crescent
Aug 24
First Quarter
Aug 31
Full
Sep 8
Last Quarter
Sep 15
New

Hourly Weather History & Observations

Time (PDT) Temp. Dew Point Humidity Pressure Visibility Wind Dir Wind Speed Gust Speed Precip Events Conditions
12:53 AM 52.0 °F 48.0 °F 86% 30.05 in 10.0 mi Calm Calm - N/A   Mostly Cloudy
1:53 AM 54.0 °F 48.9 °F 83% 30.05 in 10.0 mi Calm Calm - N/A   Mostly Cloudy
2:53 AM 52.0 °F 48.0 °F 86% 30.04 in 10.0 mi Calm Calm - N/A   Scattered Clouds
3:53 AM 50.0 °F 48.0 °F 93% 30.05 in 10.0 mi Calm Calm - N/A   Mostly Cloudy
4:53 AM 48.0 °F 46.0 °F 93% 30.05 in 10.0 mi Calm Calm - N/A   Partly Cloudy
5:53 AM 51.1 °F 48.0 °F 89% 30.05 in 10.0 mi NNW 3.5 mph - N/A   Overcast
6:53 AM 48.9 °F 48.0 °F 97% 30.06 in 10.0 mi Calm Calm - N/A   Scattered Clouds
7:53 AM 53.1 °F 51.1 °F 93% 30.07 in 10.0 mi Calm Calm - N/A   Mostly Cloudy
8:53 AM 54.0 °F 50.0 °F 86% 30.08 in 10.0 mi Calm Calm - N/A   Overcast
9:53 AM 59.0 °F 51.1 °F 75% 30.08 in 10.0 mi SSW 4.6 mph - N/A   Mostly Cloudy
10:09 AM 60.8 °F 51.8 °F 72% 30.08 in 10.0 mi SSW 6.9 mph - N/A   Overcast
10:53 AM 62.1 °F 51.1 °F 67% 30.08 in 10.0 mi SSW 8.1 mph - N/A   Overcast
11:53 AM 66.0 °F 51.1 °F 59% 30.08 in 10.0 mi SSW 8.1 mph - N/A   Clear
12:53 PM 64.9 °F 46.0 °F 50% 30.09 in 10.0 mi SW 6.9 mph - N/A   Scattered Clouds
1:53 PM 68.0 °F 44.1 °F 42% 30.08 in 10.0 mi SSW 13.8 mph 20.7 mph N/A   Mostly Cloudy
2:53 PM 66.9 °F 43.0 °F 42% 30.07 in 10.0 mi SW 13.8 mph 21.9 mph N/A   Mostly Cloudy
3:53 PM 66.0 °F 42.1 °F 42% 30.07 in 10.0 mi SW 10.4 mph 21.9 mph N/A   Mostly Cloudy
4:53 PM 64.9 °F 41.0 °F 42% 30.06 in 10.0 mi SW 10.4 mph 26.5 mph N/A   Partly Cloudy
5:53 PM 64.0 °F 41.0 °F 43% 30.06 in 10.0 mi SW 12.7 mph 27.6 mph N/A   Clear
6:53 PM 61.0 °F 41.0 °F 48% 30.06 in 10.0 mi SW 12.7 mph 21.9 mph N/A   Clear
7:53 PM 57.0 °F 44.1 °F 62% 30.06 in 10.0 mi SW 8.1 mph - N/A   Clear
8:53 PM 55.9 °F 48.0 °F 75% 30.09 in 10.0 mi SW 6.9 mph - N/A   Mostly Cloudy
9:53 PM 55.0 °F 48.0 °F 77% 30.09 in 10.0 mi WSW 8.1 mph - N/A   Partly Cloudy
10:53 PM 54.0 °F 48.9 °F 83% 30.09 in 10.0 mi WSW 6.9 mph - N/A   Partly Cloudy
11:53 PM 54.0 °F 48.9 °F 83% 30.10 in 10.0 mi WSW 4.6 mph - N/A   Mostly Cloudy